St. Augustine, FL

5:45 PM EDT on April 24, 2018 (GMT -0400)
Saint Augustine

Weather History for KSGJ - November, 2012

Change the Weather History Date:

Friday, November 2, 2012

  Actual Average Record
Temperature  
Mean Temperature 62 °F -  
Max Temperature 75 °F 73 °F 88 °F (2015)
Min Temperature 50 °F 58 °F 41 °F (1993)
Degree Days  
Heating Degree Days 2    
Growing Degree Days 12 (Base 50)    
Moisture  
Dew Point 44 °F    
Average Humidity 57    
Maximum Humidity 83    
Minimum Humidity 28    
Precipitation  
Precipitation 0.00 in - - ()
Sea Level Pressure  
Sea Level Pressure 30.04 in    
Wind  
Wind Speed 7 mph (West)    
Max Wind Speed 10 mph    
Max Gust Speed -    
Visibility 10 miles    
Events      
Averages and records for this station are not official NWS values.
T = Trace of Precipitation, MM = Missing Value Source: NWS Daily Summary

Daily Weather History Graph

Daily Weather History Graph

Search for Another Location

Airport or City:

Astronomy

Nov. 02, 2012 Rise Set
Actual Time 7:40 AM EDT 6:37 PM EDT
Civil Twilight 7:15 AM EDT 7:01 PM EDT
Nautical Twilight 6:47 AM EDT 7:30 PM EDT
Astronomical Twilight 6:19 AM EDT 7:58 PM EDT
Moon 9:31 PM EDT (11/2) 10:50 AM EDT (11/2)
Length of Visible Light 11h 46m
Length of Day
10h 56m
Waning Gibbous, 87% of the Moon is Illuminated
Nov 2
Waning Gibbous
Nov 6
Last Quarter
Nov 13
New
Nov 20
First Quarter
Nov 28
Full

Hourly Weather History & Observations

Time (EDT) Temp. Dew Point Humidity Pressure Visibility Wind Dir Wind Speed Gust Speed Precip Events Conditions
12:58 AM 54.0 °F 46.9 °F 77% 30.02 in 10.0 mi West 6.9 mph - N/A   Clear
1:58 AM 54.0 °F 45.0 °F 72% 30.02 in 10.0 mi West 10.4 mph - N/A   Clear
2:58 AM 54.0 °F 45.0 °F 72% 30.02 in 10.0 mi West 9.2 mph - N/A   Clear
3:58 AM 52.0 °F 46.0 °F 80% 30.03 in 10.0 mi West 5.8 mph - N/A   Clear
4:58 AM 52.0 °F 46.9 °F 83% 30.03 in 10.0 mi West 6.9 mph - N/A   Clear
5:58 AM 51.1 °F 46.0 °F 83% 30.04 in 10.0 mi West 4.6 mph - N/A   Clear
6:58 AM 50.0 °F 45.0 °F 83% 30.06 in 10.0 mi West 6.9 mph - N/A   Clear
7:58 AM 50.0 °F 44.1 °F 80% 30.07 in 10.0 mi West 6.9 mph - N/A   Clear
8:58 AM 55.0 °F 45.0 °F 69% 30.09 in 10.0 mi West 4.6 mph - N/A   Clear
9:58 AM 61.0 °F 43.0 °F 52% 30.10 in 10.0 mi WNW 4.6 mph - N/A   Clear
10:58 AM 66.0 °F 37.0 °F 34% 30.11 in 10.0 mi NNW 5.8 mph - N/A   Clear
11:58 AM 69.1 °F 37.0 °F 31% 30.10 in 10.0 mi NW 6.9 mph - N/A   Clear
12:58 PM 72.0 °F 37.0 °F 28% 30.07 in 10.0 mi Variable 6.9 mph - N/A   Clear
1:58 PM 73.0 °F 39.0 °F 29% 30.04 in 10.0 mi WNW 4.6 mph - N/A   Clear
2:58 PM 75.0 °F 41.0 °F 29% 30.01 in 10.0 mi West 5.8 mph - N/A   Clear
3:58 PM 75.9 °F 42.1 °F 30% 30.00 in 10.0 mi West 8.1 mph - N/A   Clear
4:58 PM 75.9 °F 43.0 °F 31% 29.99 in 10.0 mi WSW 6.9 mph - N/A   Clear
5:58 PM 73.9 °F 44.1 °F 34% 29.99 in 10.0 mi WSW 5.8 mph - N/A   Clear
6:58 PM 69.1 °F 48.0 °F 47% 30.01 in 10.0 mi WSW 4.6 mph - N/A   Clear
7:58 PM 64.0 °F 50.0 °F 60% 30.02 in 10.0 mi SW 4.6 mph - N/A   Clear
8:58 PM 62.1 °F 48.9 °F 62% 30.02 in 10.0 mi WSW 4.6 mph - N/A   Clear
9:58 PM 63.0 °F 48.0 °F 58% 30.04 in 10.0 mi WSW 8.1 mph - N/A   Clear
10:58 PM 62.1 °F 48.9 °F 62% 30.05 in 10.0 mi WSW 8.1 mph - N/A   Clear
11:58 PM 61.0 °F 51.1 °F 70% 30.06 in 10.0 mi WSW 6.9 mph - N/A   Clear